{"data":{"norad_id":66573,"epoch":"2026-05-24T18:41:24.518400Z","epoch_age_seconds":104603,"freshness":"FRESH","line1":"1 66573U 25268S   26144.77875600  .00016540  00000+0  60894-3 0  9992","line2":"2 66573  42.9994 277.6135 0001832 283.7401  76.3247 15.27595050 29599","mean_motion":15.2759505,"eccentricity":0.0001832,"inclination_deg":42.9994,"raan_deg":277.6135,"arg_perigee_deg":283.7401,"mean_anomaly_deg":76.3247,"bstar":0.00060894,"rev_number":2959,"period_min":94.265819989401,"perigee_km":481.7470702585,"apogee_km":484.26099233236,"semimajor_km":6861.1410312954,"source":"CELESTRAK","updated_at":"2026-05-25T13:38:21.283193Z"}}